FLRK1: Cottonwood Riv, Florence, KS

Data processed at Wed May 22 2019 23:50


All information presented herein is the property of the government of the United States of America and may be revised or deleted at any time without prior notice.
Dissemination of this information without the expressed written consent of the Public Affairs Office, Tulsa District U.S. Army Corps of Engineers is strictly prohibited.
These data are gathered electronically and, as presented, have not undergone any form of quality control. These data are not guaranteed to be valid or correct.
Go to home page.
Go to station list.
Go to home page.

Upstream stations:

Downstream station:
Previous Day
Next Day
Current Day
    
SHEF ID:       FLRK1     COTTONWOOD R NR FLORENCE, KS
STATION TYPE:  
Regulating: Stage =    21.00, Flow =     9037

               PRECIP     STAGE  STAGE(2)  RIV-FLOW  BAT-LOAD
                   in        ft        ft       cfs      volt
              Ccp-Rev   Ccp-Rev   Ccp-Rev   Ccp-Rev   Ccp-Rev
(US/Central)
05/22 00:00      0.00     26.09     10.61     19215     13.07
05/22 01:00      0.00     26.09     10.62     19215     13.07
05/22 02:00      0.00     26.08     10.52     19108     13.00
05/22 03:00      0.00     26.06     10.62     18895     13.00
05/22 04:00      0.00     26.03     10.29     18580     12.95
05/22 05:00      0.00     25.96      9.96     17863     12.95
05/22 06:00      0.00     25.87     10.52     16978     12.89
05/22 07:00      0.00     25.77     10.27     16043     12.89
05/22 08:00      0.00     25.64     10.34     15441     12.89
05/22 09:00      0.00     25.51      9.95     15019     12.95
05/22 10:00      0.00     25.37      9.84     14575     13.00
05/22 11:00      0.00     25.23      9.85     14141     13.12
05/22 12:00      0.00     25.09      9.71     13743     13.65
05/22 13:00      0.00     24.95      9.64     13506     13.77
05/22 14:00      0.00     24.79      9.42     13239     13.53
05/22 15:00      0.00     24.60      9.12     12926     13.53
05/22 16:00      0.00     24.39      9.12     12585     13.53
05/22 17:00      0.00     24.12      8.96     12156     13.88
05/22 18:00      0.00     23.88      8.72     11818     13.53
05/22 19:00      0.00     23.54      8.24     11384     13.83
05/22 20:00      0.00     23.22      8.27     10983     13.48
05/22 21:00      0.00     22.87      7.56     10555     13.24
05/22 22:00      0.00     22.49      6.71     10100     13.18
05/22 23:00      0.00     22.08      7.05      9798     13.12